Home > Weather > Charleston > Past weeks

Flag for USA Past Weather in Charleston, West Virginia, USA — Yesterday and Last 2 Weeks

Now
89 °F

Scattered clouds.


Feels Like: 90 °F
Forecast: 64 / 90 °F
Wind: 3 mph from Northwest

Location: Yeager Airport

Current Time: May 27, 2016 at 6:20:40 PM

Latest Report: May 27, 2016 at 5:54 PM


Visibility: 10 mi

Pressure: 29.98 "Hg

Humidity: 42%

Dew Point: 63 °F

Location of CharlestonLocation

Past Weather in Charleston — Graph

°F

Charleston Temperature Yesterday

Maximum temperature yesterday: 78 °F (at 3:54 PM)
Minimum temperature yesterday: 63 °F (at 1:54 AM)
Average temperature yesterday: 71 °F

High & Low Weather Summary for the Past Weeks

 TemperatureHumidityPressure
High88 °F (May 27, 4:54 PM)100% (May 23, 2:54 AM)30.32 "Hg (May 23, 2:54 AM)
Low37 °F (May 16, 5:54 AM)27% (May 16, 3:54 PM)29.59 "Hg (May 17, 1:54 AM)
Average60 °F73%30.06 "Hg
* Reported May 12 4:54 PM — May 27 4:54 PM, Charleston, Weather by CustomWeather, © 2016

Note: Actual official high and low records may vary slightly from our data, if they occured in-between our weather recording intervals... More about our weather records

Advertising

Charleston Weather History for the Previous 24 Hours

Scroll right to see more
 ConditionsComfort  
Time TempWeatherWind HumidityBarometerVisibility
4:54 PM
Fri, May 27
88 °FScattered clouds.3 mph40%30.00 "Hg10 mi
3:54 PM86 °FScattered clouds.5 mph45%30.01 "Hg10 mi
2:54 PM86 °FScattered clouds.6 mph46%30.03 "Hg10 mi
1:54 PM87 °FScattered clouds.No wind45%30.05 "Hg10 mi
12:54 PM84 °FScattered clouds.6 mph49%30.06 "Hg10 mi
11:54 AM83 °FScattered clouds.6 mph50%30.06 "Hg10 mi
10:54 AM80 °FScattered clouds.No wind56%30.07 "Hg10 mi
9:54 AM76 °FPartly sunny.No wind64%30.08 "Hg10 mi
8:54 AM72 °FScattered clouds.No wind73%30.07 "Hg10 mi
7:54 AM64 °FScattered clouds.No wind90%30.07 "Hg10 mi
6:54 AM61 °FPassing clouds.No wind93%30.06 "Hg8 mi
5:54 AM60 °FFog.No wind93%30.06 "Hg5 mi
4:54 AM61 °FFog.No wind93%30.05 "Hg6 mi
3:54 AM62 °FFog.No wind93%30.05 "Hg6 mi
2:54 AM63 °FClear.No wind93%30.05 "Hg8 mi
1:54 AM64 °FClear.No wind94%30.04 "Hg8 mi
12:54 AM65 °FPassing clouds.3 mph91%30.06 "Hg10 mi
11:54 PM
Thu, May 26
67 °FClear.No wind85%30.05 "Hg10 mi
10:54 PM68 °FClear.3 mph84%30.02 "Hg10 mi
9:54 PM70 °FPassing clouds.No wind79%30.01 "Hg10 mi
8:54 PM74 °FScattered clouds.5 mph67%30.02 "Hg10 mi
7:54 PM76 °FPassing clouds.7 mph62%30.03 "Hg10 mi
6:54 PM78 °FScattered clouds.9 mph58%30.03 "Hg10 mi
Weather by CustomWeather, © 2016

See weather overviewHow to use our weather pages